Flag for India Weather past 2 weeks in Dharamshala, Himachal Pradesh, India

Now
68 °F

Scattered clouds.


Feels Like: 68 °F
Forecast: 35 / 51 °F
Wind: 6 mph from West

Location: Amritsar Airport

Current Time: Mar 4, 2015 at 6:18:16 PM

Latest Report: Mar 4, 2015 at 5:30 PM


Visibility: 3 mi

Pressure: 29.95 "Hg

Humidity: 56%

Dew point: 52 °F

Location of DharamshalaLocation

Historic Weather in Dharamshala — Graph

°F

Dharamshala temperature yesterday

Maximum temperature yesterday: 66 °F (at 1:00 PM)
Minimum temperature yesterday: 55 °F (at 10:00 PM)
Average temperature yesterday: 61 °F

Past Weeks' High & Low Weather Summary

 TemperatureHumidityPressure
High79 °F (Feb 23, 3:30 PM)100% (Feb 19, 7:30 PM)30.09 "Hg (Feb 19, 7:30 PM)
Low46 °F (Mar 4, 6:30 AM)36% (Feb 27, 2:30 PM)29.71 "Hg (Feb 25, 7:30 AM)
Average63 °F81%29.94 "Hg
* Reported Feb 17 4:30 PM — Mar 4 5:00 PM, Dharamshala, Weather by CustomWeather, © 2015

Note: Actual official high and low records may vary slightly from our data, if they occured in-between our weather recording intervals... More about our weather records

Advertising

Dharamshala weather history for previous 24 hours

 ConditionsComfort  
Time TempWeatherWind HumidityBarometerVisibility
5:00 PM
Wed, Mar 4
68 °FScattered clouds.7 mph53%29.92 "Hg3 mi
4:30 PM68 °FHaze.7 mph56%29.95 "Hg3 mi
4:00 PM70 °FHaze.3 mph53%29.95 "Hg3 mi
3:30 PM70 °FHaze.3 mph57%29.95 "Hg3 mi
3:00 PM70 °FHaze.6 mph50%29.95 "Hg3 mi
2:30 PM68 °FHaze.8 mph53%29.98 "Hg3 mi
2:00 PM70 °FHaze.5 mph57%29.98 "Hg3 mi
1:30 PM68 °FHaze.6 mph56%29.98 "Hg3 mi
1:00 PM68 °FHaze.5 mph56%29.98 "Hg3 mi
12:30 PM68 °FHaze.7 mph56%30.01 "Hg3 mi
12:00 PM66 °FHaze.8 mph64%30.01 "Hg3 mi
11:30 AM66 °FHaze.8 mph60%30.01 "Hg3 mi
11:00 AM64 °FFog.5 mph68%30.01 "Hg3 mi
10:30 AM63 °FFog.5 mph73%30.01 "Hg3 mi
10:00 AM59 °FFog.2 mph82%30.01 "Hg3 mi
9:30 AM57 °FFog.5 mph88%29.98 "Hg2 mi
9:00 AM54 °FFog.2 mph94%29.98 "Hg2 mi
8:30 AM50 °FFog.No wind100%29.98 "Hg1 mi
8:00 AM48 °FFog.No wind100%29.95 "Hg1 mi
7:30 AM46 °FFog.No wind100%29.95 "Hg0 mi
7:00 AM46 °FFog.No wind100%29.92 "Hg0 mi
6:30 AM46 °FFog.No wind100%29.92 "Hg1 mi
6:00 AM48 °FFog.No wind100%29.92 "Hg1 mi
5:30 AM48 °FFog.No wind100%29.92 "Hg2 mi
5:00 AM50 °FFog.No wind100%29.92 "Hg2 mi
4:30 AM50 °FFog.No wind100%29.92 "Hg2 mi
4:00 AM50 °FFog.3 mph94%29.92 "Hg2 mi
3:30 AM50 °FFog.No wind100%29.92 "Hg2 mi
3:00 AM50 °FFog.No wind100%29.95 "Hg2 mi
2:30 AM50 °FFog.No wind100%29.95 "Hg2 mi
2:00 AM52 °FFog.No wind94%29.95 "Hg2 mi
1:30 AM54 °FFog.No wind94%29.95 "Hg2 mi
1:00 AM54 °FFog.5 mph94%29.95 "Hg2 mi
12:30 AM54 °FFog.1 mph94%29.98 "Hg2 mi
12:00 AM57 °FFog.3 mph88%29.98 "Hg2 mi
11:30 PM
Tue, Mar 3
55 °FFog.No wind94%29.98 "Hg2 mi
11:00 PM55 °FFog.No wind94%29.98 "Hg2 mi
10:30 PM55 °FFog.No wind94%29.98 "Hg2 mi
10:00 PM55 °FFog.No wind100%29.98 "Hg2 mi
9:30 PM57 °FFog.No wind94%29.98 "Hg2 mi
9:00 PM57 °FFog.No wind94%29.98 "Hg2 mi
8:30 PM57 °FFog.5 mph94%29.98 "Hg2 mi
8:00 PM57 °FFog.No wind94%29.95 "Hg2 mi
7:30 PM59 °FFog.No wind88%29.95 "Hg2 mi
7:00 PM59 °FFog.No wind88%29.95 "Hg2 mi
6:30 PM61 °FScattered clouds.2 mph83%29.95 "Hg2 mi
6:00 PM63 °FPartly sunny.2 mph83%29.92 "Hg2 mi
Weather by CustomWeather, © 2015

See weather overviewHow to use our weather pages